Vinton, IA

9:06 PM CST on February 19, 2017 (GMT -0600)
Vinton-Veterans Memorial

Weather History for KVTI - August, 2013

Change the Weather History Date:

Tuesday, August 27, 2013

  Actual Average Record
Temperature  
Mean Temperature 81 °F -  
Max Temperature 90 °F 81 °F 99 °F (1955)
Min Temperature 72 °F 60 °F 44 °F (1971)
Cooling Degree Days 16    
Growing Degree Days 31 (Base 50)    
Moisture  
Dew Point 68 °F    
Average Humidity 72    
Maximum Humidity 84    
Minimum Humidity 49    
Precipitation  
Precipitation 0.00 in - - ()
Sea Level Pressure  
Sea Level Pressure 29.96 in    
Wind  
Wind Speed 7 mph (SSW)    
Max Wind Speed 17 mph    
Max Gust Speed 21 mph    
Visibility 10 miles    
Events      
Averages and records for this station are not official NWS values.
T = Trace of Precipitation, MM = Missing Value Source: NWS Daily Summary

Daily Weather History Graph

Daily Weather History Graph

Search for Another Location

Airport or City:

Trip Planner

Search our weather history database for the weather conditions in past years. The results will help you decide how hot, cold, wet, or windy it might be!

Date:

Astronomy

Aug. 27, 2013 Rise Set
Actual Time 6:28 AM CDT 7:49 PM CDT
Civil Twilight 5:59 AM CDT 8:18 PM CDT
Nautical Twilight 5:24 AM CDT 8:53 PM CDT
Astronomical Twilight 4:47 AM CDT 9:30 PM CDT
Moon 11:34 PM CDT (8/27) 1:35 PM CDT (8/27)
Length of Visible Light 14h 19m
Length of Day
13h 21m
Waning Gibbous, 57% of the Moon is Illuminated
Aug 27
Waning Gibbous
Aug 28
Last Quarter
Sep 5
New
Sep 12
First Quarter
Sep 19
Full

Hourly Weather History & Observations

Time (CDT) Temp. Heat Index Dew Point Humidity Pressure Visibility Wind Dir Wind Speed Gust Speed Precip Events Conditions
12:15 AM 77.9 °F - 67.3 °F 70% 29.99 in 10.0 mi SW 8.1 mph - N/A   Clear
12:35 AM 77.9 °F - 66.6 °F 68% 29.99 in 10.0 mi SW 6.9 mph - N/A   Clear
12:55 AM 77.9 °F - 66.9 °F 69% 29.99 in 10.0 mi SSW 4.6 mph - N/A   Clear
1:15 AM 77.5 °F - 68.2 °F 73% 29.99 in 10.0 mi SSW 5.8 mph - N/A   Clear
1:35 AM 75.2 °F - 66.7 °F 75% 29.98 in 10.0 mi SW 4.6 mph - N/A   Clear
1:55 AM 75.6 °F - 66.4 °F 73% 29.97 in 10.0 mi SSW 5.8 mph - N/A   Clear
2:15 AM 75.2 °F - 66.6 °F 74% 29.97 in 10.0 mi South 5.8 mph - N/A   Clear
2:35 AM 75.2 °F - 67.1 °F 76% 29.97 in 10.0 mi SSW 4.6 mph - N/A   Clear
2:55 AM 75.2 °F - 67.3 °F 76% 29.97 in 10.0 mi SSW 5.8 mph - N/A   Clear
3:15 AM 75.2 °F - 68.0 °F 78% 29.96 in 10.0 mi SSW 4.6 mph - N/A   Clear
3:35 AM 75.2 °F - 68.2 °F 79% 29.96 in 10.0 mi SSW 5.8 mph - N/A   Clear
3:55 AM 75.2 °F - 68.0 °F 78% 29.96 in 10.0 mi SSW 6.9 mph - N/A   Clear
4:15 AM 75.2 °F - 68.0 °F 78% 29.95 in 10.0 mi SSW 5.8 mph - N/A   Clear
4:35 AM 75.2 °F - 68.4 °F 79% 29.95 in 10.0 mi SSW 6.9 mph - N/A   Clear
4:55 AM 75.2 °F - 68.2 °F 79% 29.95 in 10.0 mi SSW 6.9 mph - N/A   Clear
5:15 AM 75.2 °F - 68.4 °F 79% 29.95 in 10.0 mi SSW 5.8 mph - N/A   Clear
5:35 AM 75.2 °F - 68.9 °F 81% 29.96 in 10.0 mi SSW 4.6 mph - N/A   Clear
5:55 AM 75.2 °F - 69.3 °F 82% 29.96 in 10.0 mi South 5.8 mph - N/A   Clear
6:15 AM 72.7 °F - 67.1 °F 83% 29.96 in 10.0 mi South 6.9 mph - N/A   Clear
6:35 AM 72.7 °F - 67.3 °F 83% 29.97 in 10.0 mi South 5.8 mph - N/A   Clear
6:55 AM 72.7 °F - 67.5 °F 84% 29.97 in 10.0 mi SSW 5.8 mph - N/A   Clear
7:15 AM 75.2 °F - 69.8 °F 83% 29.98 in 10.0 mi South 5.8 mph - N/A   Clear
7:35 AM 75.2 °F - 68.9 °F 81% 29.98 in 10.0 mi South 5.8 mph - N/A   Clear
7:55 AM 75.2 °F - 68.2 °F 79% 29.97 in 10.0 mi South 8.1 mph - N/A   Clear
8:15 AM 75.7 °F - 67.8 °F 76% 29.97 in 10.0 mi SSW 10.4 mph - N/A   Clear
8:35 AM 77.9 °F - 68.9 °F 74% 29.96 in 10.0 mi South 9.2 mph - N/A   Clear
8:55 AM 80.2 °F 83.3 °F 69.6 °F 70% 29.96 in 10.0 mi SSW 8.1 mph - N/A   Clear
9:15 AM 81.3 °F 84.3 °F 68.7 °F 65% 29.96 in 10.0 mi SW 8.1 mph - N/A   Clear
9:35 AM 82.8 °F 85.8 °F 68.2 °F 61% 29.95 in 10.0 mi SW 11.5 mph 17.3 mph N/A   Clear
9:55 AM 83.5 °F 86.4 °F 67.6 °F 59% 29.95 in 10.0 mi SW 12.7 mph 19.6 mph N/A   Clear
10:15 AM 84.9 °F 87.9 °F 67.8 °F 56% 29.95 in 10.0 mi SW 10.4 mph 18.4 mph N/A   Clear
10:35 AM 86.4 °F 90.0 °F 68.5 °F 55% 29.95 in 10.0 mi WSW 9.2 mph 17.3 mph N/A   Clear
10:55 AM 87.8 °F 92.2 °F 69.1 °F 54% 29.94 in 10.0 mi WSW 13.8 mph 19.6 mph N/A   Clear
11:15 AM 90.5 °F 96.5 °F 70.5 °F 52% 29.94 in 10.0 mi SW 12.7 mph 18.4 mph N/A   Clear
11:35 AM 90.5 °F 96.0 °F 70.2 °F 51% 29.94 in 10.0 mi SW 10.4 mph 19.6 mph N/A   Clear
11:55 AM 90.5 °F 95.1 °F 69.1 °F 49% 29.93 in 10.0 mi SW 17.3 mph 20.7 mph N/A   Clear